Location: Moscow
(38.8570°N, 84.2291°W)
Time: 23:01:10
(UTC+00:00)

Sich 1 Rocket - Pass Details

Date: 15 November 2025
Orbit: 611 x 646 km, 82.5° (Epoch: 14 December)

Event Time Altitude Azimuth Distance (km) Brightness Sun altitude
Rises 23:32:40 0° 159° (SSE) 2,927 6.9 -13.7°
Reaches altitude 10° 23:35:08 10° 147° (SSE) 2,028 6.0 -14.2°
Maximum altitude 23:38:56 27° 89° (E) 1,228 4.5 -14.9°
Enters shadow 23:40:06 24° 64° (ENE) 1,326 4.7 -15.1°
